Theta_e
361 360 360 360 359 358 358 358 359 359 358 358 357 357 358 357 357 357 356 358 359 360 361 360 361 361 360 359 358 359 361 360 360 360 360 360 360 358 357 357 356 355
361 360 359 359 360 361 360 358 358 358 358 359 357 356 358 359 360 360 360 361 360 360 362 361 361 361 359 359 358 359 361 361 359 360 361 361 360 359 357 356 355 354
362 361 359 358 358 359 359 358 359 358 357 358 358 357 358 359 359 361 362 363 361 360 362 361 361 361 359 360 360 358 361 362 359 361 365 363 360 360 358 356 355 355
361 361 359 357 357 356 358 358 360 358 357 358 358 358 358 358 358 360 362 362 362 362 362 361 361 361 359 360 360 359 362 362 360 363 366 363 361 359 358 357 357 355
359 360 359 358 357 356 358 358 358 357 358 359 359 358 360 359 358 359 359 360 361 362 363 362 361 361 360 361 360 360 361 361 359 361 362 361 361 361 358 358 358 357
357 358 360 358 358 358 357 358 357 357 358 358 359 358 359 359 359 359 359 358 358 358 360 360 359 360 360 360 360 360 361 360 360 363 365 363 361 360 358 359 361 360
356 357 358 358 359 358 357 357 358 357 357 358 358 358 358 357 358 360 359 358 356 356 357 358 359 359 359 361 361 360 360 360 361 365 366 362 361 361 359 360 362 362
354 355 356 357 358 358 358 357 357 358 357 358 357 358 358 357 357 359 358 358 358 357 357 359 360 359 359 360 362 361 360 359 359 361 360 360 360 361 361 360 361 362
352 352 354 355 356 357 357 356 356 357 357 358 358 358 358 358 358 358 359 358 358 358 358 361 361 359 358 359 361 363 361 358 358 359 360 360 359 360 360 359 359 359
351 351 351 352 352 354 355 354 355 356 357 357 357 356 356 358 357 358 361 360 360 361 361 360 362 359 357 357 360 362 363 360 360 361 361 362 361 360 361 360 360 360
352 350 350 350 350 350 351 352 352 353 355 355 355 354 355 357 357 358 363 362 360 362 363 362 364 362 359 359 359 361 362 361 361 360 360 361 360 361 362 360 360 359
350 349 349 348 349 348 349 350 350 350 353 353 353 353 353 356 357 356 360 362 360 360 362 363 364 363 363 363 360 360 361 360 361 361 361 361 361 361 360 359 358 357
351 349 348 347 348 348 346 347 348 347 349 350 350 350 351 354 356 356 358 360 360 359 360 363 364 363 364 364 362 360 361 361 361 360 361 360 360 359 357 356 355 355
352 351 351 349 347 348 347 345 347 346 346 347 347 348 349 349 352 354 356 358 359 358 359 361 363 362 363 364 363 360 359 361 361 360 361 360 358 357 356 353 352 351
355 354 355 355 353 351 349 346 346 346 346 346 346 347 346 346 347 348 351 354 356 357 357 358 360 361 360 360 361 360 358 358 359 359 359 357 356 356 355 354 351 350
363 362 362 361 360 359 357 353 350 350 349 347 348 348 346 346 346 345 345 348 351 353 354 354 353 354 354 356 358 359 357 358 359 359 358 359 358 357 356 354 352 351
368 367 365 364 364 364 362 360 357 355 353 351 350 350 350 350 348 347 346 345 345 348 350 350 349 347 349 352 355 357 357 358 358 359 359 359 359 358 357 355 352 350
365 366 366 365 365 366 365 364 363 360 359 357 355 353 352 352 350 350 350 347 346 346 346 347 348 347 348 350 353 353 353 354 354 354 355 355 355 356 356 354 352 351
360 362 364 363 363 363 364 365 364 363 361 360 361 359 356 355 353 352 351 350 347 345 346 349 350 349 351 353 354 353 352 352 352 352 351 350 351 353 353 352 353 353
354 355 357 357 358 358 360 361 361 362 362 359 360 360 357 357 356 354 353 353 352 349 350 353 352 350 353 354 353 353 351 351 350 352 351 349 349 350 351 352 354 355
351 352 351 352 353 352 353 354 351 351 353 354 354 353 352 353 354 354 353 354 353 352 352 354 354 352 353 353 352 352 351 350 349 350 352 350 348 347 349 351 354 355
349 350 350 350 349 346 347 350 350 346 347 350 351 350 352 352 352 353 351 350 350 351 351 353 353 354 353 353 353 353 351 351 352 353 353 351 349 349 350 351 353 356
344 346 346 347 347 345 345 348 350 348 347 349 350 351 352 352 351 351 350 348 348 350 350 349 349 350 352 352 353 353 353 353 355 356 356 354 353 353 353 352 353 356
342 343 344 344 345 345 345 346 347 346 346 348 347 347 348 347 346 347 347 348 348 348 348 345 344 346 348 349 350 350 350 352 355 356 356 355 354 354 352 351 354 355
341 341 342 344 344 345 345 345 345 344 344 344 343 343 343 343 343 343 343 345 346 345 345 343 342 342 343 345 346 347 348 351 353 355 355 354 353 353 351 352 353 352
339 340 339 340 340 340 339 339 340 341 341 341 340 340 340 340 341 341 342 344 344 342 341 339 339 338 339 340 341 343 346 348 349 351 352 352 352 350 350 350 350 349
Wind_Speed
10 10 9 9 8 8 9 9 8 9 8 8 9 9 9 8 8 9 8 7 7 7 6 6 6 5 5 5 5 4 3 3 2 2 2 3 3 3 2 2 2 3
10 10 9 9 8 7 8 9 9 9 8 7 8 8 8 8 8 8 8 8 8 7 7 7 6 6 6 6 6 5 4 4 3 3 3 3 3 3 3 4 3 3
10 10 10 10 10 9 9 9 8 9 9 8 8 9 9 9 9 9 8 8 8 7 7 7 7 7 7 6 6 6 5 5 4 3 2 2 4 4 4 4 4 3
11 11 11 10 9 10 10 9 9 9 9 9 9 9 8 9 10 10 9 9 8 8 8 8 8 7 7 6 6 6 5 5 5 3 2 3 4 4 4 5 4 3
13 11 11 10 9 9 10 9 10 10 9 9 9 9 8 8 10 11 10 10 10 9 9 9 9 8 8 7 7 6 6 6 6 5 4 5 5 5 5 5 4 4
14 13 12 11 9 10 10 10 10 10 9 9 9 9 9 9 10 11 11 11 11 10 10 10 9 9 9 9 8 8 7 6 5 6 6 5 5 6 5 4 4 5
14 14 13 12 11 11 11 10 10 10 9 9 9 9 10 10 10 10 10 10 10 10 10 9 9 9 9 9 9 8 8 6 5 6 6 6 6 6 6 6 5 5
14 14 14 13 12 12 12 11 11 11 10 9 9 9 10 10 10 10 10 10 10 9 9 9 9 9 9 9 9 9 9 9 8 8 8 7 7 7 7 7 6 7
14 14 14 14 14 13 13 13 12 12 11 11 10 10 10 10 10 10 10 9 9 9 9 9 9 10 10 9 9 9 9 10 9 9 9 8 8 8 8 7 7 8
14 14 15 15 15 14 14 14 13 13 13 12 12 11 11 11 11 10 10 10 9 9 10 10 10 10 11 10 10 10 10 10 9 8 9 9 8 8 8 8 8 8
15 15 15 15 16 15 14 14 14 13 13 13 13 12 12 12 12 11 11 11 11 10 11 10 10 10 11 10 10 10 10 10 9 9 9 9 9 9 9 8 8 9
16 16 16 16 16 15 15 15 14 14 13 14 13 13 12 12 13 12 12 12 12 11 11 11 10 10 10 10 10 10 10 10 9 9 10 10 10 10 10 10 10 9
16 16 16 16 16 16 16 15 15 15 15 14 13 13 13 13 12 13 12 12 12 12 12 12 11 11 11 10 11 10 10 10 10 10 10 10 10 10 11 11 11 10
15 14 14 14 15 16 16 16 15 16 15 14 14 14 14 14 13 13 12 12 13 13 12 12 12 12 12 11 12 11 10 10 10 10 10 10 10 11 11 11 11 11
15 13 12 12 11 13 15 15 15 15 15 15 15 15 15 15 14 14 13 13 13 13 13 13 13 13 13 13 12 12 12 11 11 11 11 11 11 11 11 11 12 12
12 11 10 10 9 10 12 13 14 14 14 15 15 15 14 13 14 15 15 14 14 14 13 13 13 13 13 14 13 12 11 10 10 10 11 11 11 11 12 12 12 12
10 9 8 8 8 8 9 11 12 12 13 14 15 15 14 14 14 14 15 15 14 14 14 14 13 12 13 15 16 15 12 9 9 10 10 11 12 12 12 13 13 13
9 8 8 8 7 6 6 8 10 11 12 12 14 15 15 15 16 15 15 15 13 14 15 12 10 11 12 14 16 17 15 13 12 12 12 13 13 13 14 14 13 13
6 6 8 7 6 5 5 6 7 9 11 11 10 12 13 14 15 15 14 14 15 16 13 6 5 9 11 12 14 14 15 15 14 13 14 14 14 13 14 14 14 14
3 3 4 5 6 6 6 8 9 8 9 10 8 9 10 10 10 11 8 7 9 9 4 1 5 8 10 11 12 12 13 15 15 14 15 16 15 15 14 14 13 13
2 1 2 3 6 6 3 5 9 9 8 9 8 7 9 9 9 9 9 8 6 3 2 2 2 4 6 8 9 9 10 12 13 13 14 16 16 15 16 15 15 14
3 3 3 2 4 7 4 5 4 7 8 8 7 6 8 7 6 7 10 10 7 2 5 4 2 2 4 5 6 8 9 9 10 11 13 15 15 14 13 13 12 11
7 7 5 4 3 5 5 2 1 2 5 6 5 3 3 4 4 4 4 6 5 2 5 3 0 1 3 4 6 8 9 8 8 10 11 12 13 14 13 12 11 10
10 10 7 6 6 4 3 3 4 4 5 6 6 5 5 4 3 3 4 5 4 3 5 5 4 3 3 4 5 7 7 6 7 8 9 10 10 9 8 7 6 7
10 10 9 7 7 7 7 7 7 7 6 7 8 8 8 9 9 8 7 7 7 8 8 6 6 6 5 4 5 4 4 4 5 6 6 8 8 7 6 5 4 4
13 12 11 10 8 9 11 11 10 10 9 8 9 10 11 12 12 11 9 8 9 10 9 8 8 8 7 6 5 4 2 2 3 3 3 4 4 4 4 4 3 5
Wind_Direction
170 169 168 169 172 173 171 176 181 181 187 189 184 188 189 188 190 187 188 189 191 195 191 190 190 188 191 188 192 196 189 204 202 180 209 241 263 279 286 270 279 295
177 173 173 177 178 178 175 178 182 180 187 193 181 180 185 183 182 183 185 186 190 193 191 192 193 193 197 191 192 199 197 208 222 212 209 237 265 273 279 270 256 259
185 182 183 186 184 184 183 179 181 182 185 188 181 182 186 182 180 183 183 186 191 191 191 194 194 195 200 192 192 204 203 205 223 234 217 231 261 270 274 274 264 255
192 192 193 197 189 184 186 183 184 188 187 186 185 187 187 180 179 183 185 187 190 190 189 195 195 193 198 195 198 208 205 208 222 234 244 244 258 265 265 272 275 277
194 198 198 202 196 185 189 190 190 192 190 188 188 189 187 181 180 183 186 189 192 192 190 192 194 194 195 195 200 208 210 217 219 217 235 248 252 256 259 262 262 269
193 198 200 203 201 193 193 194 194 195 194 191 190 191 190 188 189 187 188 191 194 196 195 193 194 195 197 197 200 208 215 221 209 200 220 240 248 252 256 259 258 261
194 197 200 203 202 200 199 197 195 198 200 195 192 194 193 192 195 192 191 195 196 197 197 194 194 198 199 198 201 207 216 222 209 206 224 238 241 245 249 253 251 249
198 198 200 204 204 202 202 201 198 198 200 199 196 196 196 194 197 197 197 199 199 197 196 190 191 200 203 203 206 207 213 220 216 217 228 235 236 239 241 244 243 245
202 202 202 205 207 205 205 204 201 198 198 202 201 197 197 198 200 199 198 204 204 198 197 195 193 202 208 209 210 211 216 225 223 218 223 229 233 235 236 238 239 243
203 206 206 206 207 208 210 208 204 199 198 203 206 201 197 198 202 200 193 200 208 199 199 204 201 204 211 211 211 214 220 228 232 228 230 234 236 237 237 238 238 241
202 207 209 209 209 211 211 211 210 206 202 204 209 208 201 197 199 201 194 196 207 205 203 209 209 208 214 215 215 217 222 229 233 234 237 239 240 241 239 238 240 241
206 208 209 210 212 214 213 212 213 213 209 208 210 212 211 203 199 202 201 201 207 209 205 207 211 213 214 217 219 220 223 228 231 232 235 237 239 241 240 237 239 240
209 210 211 211 211 215 217 215 214 215 215 214 212 214 216 211 205 204 205 205 208 212 211 207 209 213 214 217 222 225 225 227 230 232 235 238 239 242 244 242 241 241
210 212 214 215 213 215 218 219 218 217 217 217 216 217 219 218 216 211 208 209 209 212 213 210 209 214 216 217 221 225 228 228 231 236 238 240 243 245 247 249 250 249
206 210 215 219 217 215 218 222 224 221 220 221 220 221 221 220 221 221 218 217 215 214 217 217 216 217 218 219 220 225 232 233 232 237 241 243 246 249 249 251 255 255
195 200 207 213 214 215 216 221 227 225 222 223 224 227 228 226 226 227 225 222 221 221 222 225 227 227 223 220 220 222 229 237 238 238 243 245 245 249 252 253 255 258
178 183 190 199 205 210 214 219 226 229 228 226 224 226 228 229 232 233 230 230 230 227 227 229 233 241 235 223 222 225 229 240 248 243 244 247 246 247 251 253 254 257
175 180 180 187 198 203 210 218 224 229 232 231 228 226 226 227 231 233 233 235 236 235 237 236 232 240 236 219 218 226 229 237 250 252 249 248 249 249 251 254 257 258
189 199 189 187 200 213 227 235 234 234 234 232 232 231 228 225 224 227 233 235 238 242 247 238 202 212 217 207 207 218 225 233 247 259 260 257 255 255 256 257 258 260
206 251 233 216 206 211 240 249 243 248 245 243 256 259 254 257 251 244 246 249 251 257 263 137 164 190 200 204 209 219 228 237 247 257 264 264 261 260 262 263 263 262
150 27 320 252 206 204 292 288 250 258 267 259 270 272 267 291 298 267 254 259 263 253 125 127 173 187 201 216 225 236 243 248 254 260 265 267 265 263 263 263 265 264
117 98 69 58 190 211 290 334 270 272 294 290 286 264 247 272 298 271 255 258 261 184 141 168 209 198 225 243 247 256 261 265 268 266 267 271 272 277 281 285 294 293
93 93 91 77 115 201 238 342 30 326 348 347 331 309 268 269 276 269 242 226 228 154 108 107 317 241 252 261 262 263 265 273 279 275 276 279 283 298 311 316 324 328
92 95 98 89 89 124 155 91 67 52 36 32 34 40 41 47 62 66 91 137 162 116 78 60 31 6 329 306 297 287 278 279 278 276 286 291 289 303 317 305 295 297
96 100 95 88 86 94 101 94 79 69 53 41 46 54 55 58 62 64 70 86 95 90 78 56 32 17 1 348 339 326 314 309 292 276 284 295 294 293 290 285 301 311
93 101 102 99 95 94 94 90 81 77 69 55 53 59 62 62 62 65 69 75 81 82 76 58 45 36 26 17 9 358 350 6 7 349 313 312 329 321 288 288 355 357